TimeMST,TemperatureF,Dew PointF,Humidity,Sea Level PressureIn,VisibilityMPH,Wind Direction,Wind SpeedMPH,Gust SpeedMPH,PrecipitationIn,Events,Conditions,WindDirDegrees,DateUTC
12:56 AM,5.0,-0.0,80,30.20,-9999.0,NNW,19.6,29.9,N/A,,Unknown,330,2012-12-09 07:56:00
1:56 AM,3.9,-0.9,80,30.23,-9999.0,NNW,21.9,29.9,N/A,,Unknown,330,2012-12-09 08:56:00
2:56 AM,1.9,-2.0,83,30.27,-9999.0,NW,20.7,-,N/A,,Unknown,320,2012-12-09 09:56:00
3:56 AM,-0.0,-4.0,83,30.29,-9999.0,NW,21.9,27.6,N/A,,Unknown,320,2012-12-09 10:56:00
4:56 AM,-2.0,-6.0,83,30.35,-9999.0,NW,18.4,-,N/A,,Unknown,320,2012-12-09 11:56:00
5:56 AM,-4.0,-8.0,83,30.39,-9999.0,NW,16.1,-,N/A,,Unknown,320,2012-12-09 12:56:00
6:56 AM,-4.0,-8.0,83,30.43,-9999.0,NNW,17.3,-,N/A,,Unknown,330,2012-12-09 13:56:00
7:56 AM,-4.0,-8.0,83,30.46,-9999.0,NW,12.7,-,N/A,,Unknown,320,2012-12-09 14:56:00
8:56 AM,-0.0,-5.1,79,30.46,-9999.0,NW,12.7,-,N/A,,Unknown,310,2012-12-09 15:56:00
9:56 AM,3.9,-2.0,76,30.48,-9999.0,NW,9.2,-,N/A,,Unknown,310,2012-12-09 16:56:00
10:56 AM,8.1,-0.0,70,30.46,-9999.0,WNW,9.2,-,N/A,,Unknown,290,2012-12-09 17:56:00
11:56 AM,10.9,1.9,67,30.43,-9999.0,West,6.9,-,N/A,,Unknown,280,2012-12-09 18:56:00
12:56 PM,12.0,1.9,64,30.39,-9999.0,West,8.1,-,N/A,,Unknown,260,2012-12-09 19:56:00
1:56 PM,12.0,1.9,64,30.36,-9999.0,SW,8.1,-,N/A,,Unknown,230,2012-12-09 20:56:00
2:56 PM,10.0,1.0,67,30.36,-9999.0,WSW,10.4,-,N/A,,Unknown,240,2012-12-09 21:56:00
3:56 PM,7.0,-2.0,67,30.35,-9999.0,SW,9.2,-,N/A,,Unknown,220,2012-12-09 22:56:00
4:56 PM,5.0,-2.9,70,30.32,-9999.0,SSW,6.9,-,N/A,,Unknown,210,2012-12-09 23:56:00
5:56 PM,3.9,-4.0,70,30.29,-9999.0,SSW,6.9,-,N/A,,Unknown,200,2012-12-10 00:56:00
6:56 PM,3.0,-5.1,69,30.27,-9999.0,South,5.8,-,N/A,,Unknown,190,2012-12-10 01:56:00
7:56 PM,-0.9,-6.0,79,30.23,-9999.0,SE,8.1,-,N/A,,Unknown,140,2012-12-10 02:56:00
8:56 PM,-0.0,-5.1,79,30.17,-9999.0,South,9.2,-,N/A,,Unknown,170,2012-12-10 03:56:00
9:56 PM,1.9,-4.0,76,30.12,-9999.0,South,12.7,-,N/A,,Unknown,180,2012-12-10 04:56:00
10:56 PM,-0.0,-6.0,76,30.08,-9999.0,South,6.9,-,N/A,,Unknown,170,2012-12-10 05:56:00
11:56 PM,-2.0,-7.1,79,30.04,-9999.0,SSE,5.8,-,N/A,,Unknown,150,2012-12-10 06:56:00